NC0JW Weather Reports


Display with metric or nautical units.
time (UTC)temp
F
wind
direction
speed
MPH
gust
MPH
rain 1hr
in
rain 24hr
in
rain mn
in
humidity
%
barometer
mb
20260505054906 42 26 5.0 10.0 0.01 0.02 0.02 86 1012.4
20260505054407 42 11 3.0 9.0 0.01 0.02 0.02 85 1012.4
20260505053906 42 5 4.0 9.0 0.00 0.01 0.01 84 1012.4
20260505053408 42 351 6.0 11.0 0.00 0.01 0.01 82 1012.4
20260505052907 42 355 6.0 11.0 0.00 0.01 0.01 81 1012.3
20260505041347 42 56 5.0 11.0 0.00 0.01 0.01 81 1011.2
20260505040847 42 35 7.0 12.0 0.00 0.01 0.01 81 1011.2
20260505040346 42 35 8.0 13.0 0.00 0.01 0.01 81 1011.1
20260505035846 42 27 9.0 14.0 0.00 0.01 0.01 81 1011.0
20260505035347 43 22 10.0 15.0 0.00 0.01 0.01 81 1011.3
20260505034845 43 32 10.0 15.0 0.00 0.01 0.01 80 1011.3
20260505034348 43 37 11.0 19.0 0.00 0.01 0.01 80 1011.5
20260505033845 43 35 12.0 19.0 0.00 0.01 0.01 80 1011.6
20260505033344 43 18 11.0 16.0 0.00 0.01 0.01 79 1011.3
20260505032845 43 30 11.0 16.0 0.00 0.01 0.01 78 1011.1
20260505031844 43 28 12.0 17.0 0.00 0.01 0.01 78 1011.2
20260505031345 43 27 12.0 17.0 0.00 0.01 0.01 79 1011.1
20260505030842 43 19 10.0 16.0 0.00 0.01 0.01 80 1011.1
20260505030343 43 17 9.0 14.0 0.00 0.01 0.01 80 1011.1
20260505025325 43 5 7.0 13.0 0.00 0.01 0.01 81 1011.1
20260505024825 43 9 6.0 12.0 0.01 0.01 0.01 81 1011.1
20260505023825 43 9 9.0 13.0 0.01 0.01 0.01 81 1011.0
20260505023326 43 11 11.0 14.0 0.01 0.01 0.01 80 1010.8
20260505022321 43 30 9.0 15.0 0.01 0.01 0.01 80 1011.0
20260505021820 43 17 9.0 13.0 0.01 0.01 0.01 79 1011.1
20260505021320 43 37 9.0 13.0 0.01 0.01 0.01 78 1011.0
20260505020821 44 31 8.0 14.0 0.01 0.01 0.01 78 1011.1
20260505020319 44 28 8.0 14.0 0.01 0.01 0.01 76 1011.5
20260505015817 44 11 9.0 13.0 0.01 0.01 0.01 77 1011.5
20260505013814 48 44 9.0 23.0 0.00 0.00 0.00 63 1011.2
20260505012800 50 17 3.0 11.0 0.00 0.00 0.00 54 1011.0
20260505011800 51 325 4.0 10.0 0.00 0.00 0.00 52 1011.0
20260505011301 51 319 3.0 10.0 0.00 0.00 0.00 51 1010.8
20260505010758 52 5 4.0 13.0 0.00 0.00 0.00 49 1010.6
20260505010259 52 11 8.0 19.0 0.00 0.00 0.00 48 1010.2
20260505005754 52 345 11.0 19.0 0.00 0.00 0.00 48 1010.0
20260505005254 52 5 12.0 21.0 0.00 0.00 0.00 47 1009.8
20260505004755 52 24 12.0 21.0 0.00 0.00 0.00 47 1009.6
20260505004255 53 11 12.0 17.0 0.00 0.00 0.00 47 1009.5
20260505003755 53 5 13.0 19.0 0.00 0.00 0.00 46 1009.5
20260505003254 53 13 12.0 19.0 0.00 0.00 0.00 45 1009.5
20260505002755 54 0 12.0 18.0 0.00 0.00 0.00 43 1009.2
20260505002239 54 26 13.0 19.0 0.00 0.00 0.00 44 1009.1
20260505001742 54 33 14.0 21.0 0.00 0.00 0.00 42 1009.1
20260505001239 55 20 15.0 21.0 0.00 0.00 0.00 43 1009.2
20260505000741 55 32 14.0 21.0 0.00 0.00 0.00 43 1009.1
20260504235740 55 28 14.0 23.0 0.00 0.00 0.00 43 1009.2
20260504235242 56 24 13.0 23.0 0.00 0.00 0.00 42 1009.1
20260504234737 56 49 13.0 21.0 0.00 0.00 0.00 42 1009.1
20260504234237 57 41 12.0 19.0 0.00 0.00 0.00 41 1009.2
20260504233239 58 17 8.0 18.0 0.00 0.00 0.00 39 1009.2
20260504232738 59 0 2.0 13.0 0.00 0.00 0.00 39 1009.3
20260504232238 59 345 0.0 5.0 0.00 0.00 0.00 40 1009.2
20260504231737 59 259 0.0 3.0 0.00 0.00 0.00 39 1009.1
20260504231239 59 257 2.0 7.0 0.00 0.00 0.00 39 1009.2
20260504230724 59 211 3.0 9.0 0.00 0.00 0.00 38 1009.1
20260504225217 58 259 6.0 12.0 0.00 0.00 0.00 40 1009.1
20260504224717 58 252 7.0 14.0 0.00 0.00 0.00 38 1009.2
20260504224218 58 229 7.0 14.0 0.00 0.00 0.00 40 1009.2
20260504223717 58 201 6.0 16.0 0.00 0.00 0.00 36 1009.0
20260504223216 58 166 6.0 16.0 0.00 0.00 0.00 37 1009.1
20260504222716 58 275 4.0 15.0 0.00 0.00 0.00 39 1009.1
20260504222217 58 233 3.0 15.0 0.00 0.00 0.00 38 1009.2
20260504220638 59 5 8.0 16.0 0.00 0.00 0.00 36 1009.2
20260504220124 59 22 8.0 16.0 0.00 0.00 0.00 34 1009.1
20260504215613 59 350 9.0 14.0 0.00 0.00 0.00 35 1009.0
20260504215111 59 26 10.0 23.0 0.00 0.00 0.00 32 1009.0
20260504214111 60 58 4.0 16.0 0.00 0.00 0.00 31 1008.6
20260504213611 61 51 1.0 7.0 0.00 0.00 0.00 28 1008.6
20260504212613 62 31 0.0 0.0 0.00 0.00 0.00 28 1008.5
20260504212110 62 31 0.0 4.0 0.00 0.00 0.00 27 1008.6
20260504211556 62 30 1.0 5.0 0.00 0.00 0.00 27 1008.5
20260504211042 63 51 1.0 7.0 0.00 0.00 0.00 28 1008.5
20260504210530 63 240 2.0 8.0 0.00 0.00 0.00 28 1008.6
20260504205512 64 115 1.0 10.0 0.00 0.00 0.00 26 1008.6
20260504205003 64 138 1.0 6.0 0.00 0.00 0.00 29 1008.8
20260504204453 63 146 2.0 7.0 0.00 0.00 0.00 28 1008.7
20260504202951 62 219 1.0 5.0 0.00 0.00 0.00 27 1009.2
20260504202450 63 196 0.0 1.0 0.00 0.00 0.00 27 1009.3
20260504201948 63 196 0.0 4.0 0.00 0.00 0.00 26 1009.3
20260504201447 63 196 1.0 9.0 0.00 0.00 0.00 27 1009.3
20260504200948 62 292 3.0 12.0 0.00 0.00 0.00 27 1009.3
20260504200435 62 5 4.0 12.0 0.00 0.00 0.00 27 1009.5
20260504195927 63 332 4.0 12.0 0.00 0.00 0.00 29 1009.5
20260504195427 62 348 3.0 12.0 0.00 0.00 0.00 29 1009.3
20260504194929 62 319 1.0 9.0 0.00 0.00 0.00 28 1009.5
20260504193925 62 350 1.0 6.0 0.00 0.00 0.00 25 1009.3
20260504193426 63 348 1.0 6.0 0.00 0.00 0.00 25 1009.5
20260504192926 63 50 2.0 11.0 0.00 0.00 0.00 25 1009.5
20260504192414 64 150 4.0 12.0 0.00 0.00 0.00 25 1009.5
20260504191912 64 248 4.0 12.0 0.00 0.00 0.00 24 1009.5
20260504190911 64 148 3.0 10.0 0.00 0.00 0.00 25 1009.5
20260504190410 64 220 6.0 12.0 0.00 0.00 0.00 23 1009.5
20260504185907 65 213 5.0 13.0 0.00 0.00 0.00 25 1009.7
20260504185409 65 232 2.0 12.0 0.00 0.00 0.00 27 1009.7
20260504184908 64 248 3.0 13.0 0.00 0.00 0.00 27 1009.7
20260504184407 64 309 3.0 13.0 0.00 0.00 0.00 27 1009.8
20260504183853 64 246 2.0 10.0 0.00 0.00 0.00 26 1010.2
20260504183342 63 271 4.0 13.0 0.00 0.00 0.00 27 1010.2
20260504182832 62 238 4.0 13.0 0.00 0.00 0.00 31 1010.3
20260504182330 61 250 3.0 9.0 0.00 0.00 0.00 28 1010.3
20260504181829 61 236 3.0 9.0 0.00 0.00 0.00 27 1010.3
20260504181326 60 247 5.0 13.0 0.00 0.00 0.00 29 1010.3
20260504180827 60 201 8.0 16.0 0.00 0.00 0.00 30 1010.3
20260504180328 60 180 7.0 22.0 0.00 0.00 0.00 30 1010.3
20260504175827 61 221 3.0 22.0 0.00 0.00 0.00 29 1010.6
20260504175328 63 300 2.0 7.0 0.00 0.00 0.00 30 1010.6
20260504174827 63 341 4.0 12.0 0.00 0.00 0.00 29 1010.7
20260504173823 65 12 5.0 13.0 0.00 0.00 0.00 30 1011.0
20260504173323 65 329 4.0 13.0 0.00 0.00 0.00 29 1011.1
20260504172824 64 336 4.0 14.0 0.00 0.00 0.00 34 1011.1
20260504172323 63 311 6.0 15.0 0.00 0.00 0.00 33 1011.3
20260504171823 63 302 5.0 15.0 0.00 0.00 0.00 33 1011.2
20260504171324 63 259 4.0 11.0 0.00 0.00 0.00 33 1011.2
20260504170823 63 284 5.0 17.0 0.00 0.00 0.00 34 1011.3
20260504170324 63 300 6.0 18.0 0.00 0.00 0.00 34 1011.3
20260504160309 59 296 7.0 18.0 0.00 0.00 0.00 39 1011.9
20260504150739 58 319 5.0 12.0 0.00 0.00 0.00 37 1011.8
20260504150238 57 276 5.0 18.0 0.00 0.00 0.00 38 1011.9
20260504140714 54 327 7.0 14.0 0.00 0.00 0.00 38 1011.7
20260504140215 54 304 6.0 13.0 0.00 0.00 0.00 39 1011.6
20260504130704 50 324 2.0 9.0 0.00 0.00 0.00 41 1011.6
20260504120134 46 315 2.0 7.0 0.00 0.00 0.00 43 1011.6
20260504110605 48 312 2.0 8.0 0.00 0.00 0.00 41 1011.8
20260504110104 47 309 3.0 8.0 0.00 0.00 0.00 41 1011.8
20260504100559 46 309 1.0 7.0 0.00 0.00 0.00 44 1011.8
20260504080951 44 298 0.0 2.0 0.00 0.00 0.00 47 1012.6
20260504080447 44 306 0.0 2.0 0.00 0.00 0.00 48 1012.6